Weather History for Iron Mountain, MI

Change the Weather History Date:

Tuesday, February 25, 2014

  Actual Average Record
Temperature  
Mean Temperature 3 °F -  
Max Temperature 8 °F 30 °F 55 °F (1976)
Min Temperature -2 °F 6 °F -20 °F (2003)
Degree Days  
Heating Degree Days 62    
Moisture  
Dew Point -8 °F    
Average Humidity 62    
Maximum Humidity 72    
Minimum Humidity 46    
Precipitation  
Precipitation 0.00 in - - ()
Sea Level Pressure  
Sea Level Pressure 30.10 in    
Wind  
Wind Speed 9 mph (WNW)    
Max Wind Speed 16 mph    
Max Gust Speed 28 mph    
Visibility 10 miles    
Events      
Averages and records for this station are not official NWS values.
T = Trace of Precipitation, MM = Missing Value Source: NWS Daily Summary

Daily Weather History Graph

Daily Weather History Graph

Search for Another Location

Airport:

Trip Planner

Search our weather history database for the weather conditions in past years. The results will help you decide how hot, cold, wet, or windy it might be!

Date:

Astronomy

Feb. 25, 2014 Rise Set
Actual Time 6:38 AM CST 5:33 PM CST
Civil Twilight 6:08 AM CST 6:03 PM CST
Nautical Twilight 5:33 AM CST 6:38 PM CST
Astronomical Twilight 4:59 AM CST 7:12 PM CST
Moon 3:41 AM CST (2/25) 1:30 PM CST (2/25)
Length of Visible Light 11h 55m
Length of Day
10h 55m
Waning Crescent, 18% of the Moon is Illuminated
Feb 25
Waning Crescent
Mar 1
New
Mar 8
First Quarter
Mar 16
Full
Mar 23
Last Quarter

Hourly Weather History & Observations

Time (CST) Temp. Windchill Dew Point Humidity Pressure Visibility Wind Dir Wind Speed Gust Speed Precip Events Conditions
12:54 AM 6.1 °F -2.8 °F -2.9 °F 67% 30.15 in 10.0 mi WNW 4.6 mph - N/A   Overcast
1:54 AM 6.1 °F -4.3 °F -2.9 °F 67% 30.14 in 10.0 mi WNW 5.8 mph - N/A   Overcast
2:54 AM 5.0 °F -8.1 °F -4.0 °F 66% 30.13 in 10.0 mi West 8.1 mph - N/A   Mostly Cloudy
3:54 AM 3.0 °F -9.3 °F -5.1 °F 69% 30.13 in 10.0 mi West 6.9 mph - N/A   Clear
4:54 AM 1.9 °F -10.6 °F -6.0 °F 69% 30.13 in 10.0 mi West 6.9 mph - N/A   Clear
5:54 AM 1.0 °F -10.3 °F -6.0 °F 72% 30.13 in 10.0 mi WNW 5.8 mph - N/A   Clear
6:54 AM -0.0 °F -13.0 °F -7.1 °F 72% 30.13 in 10.0 mi West 6.9 mph - N/A   Clear
7:54 AM -0.0 °F -16.3 °F -8.0 °F 69% 30.14 in 10.0 mi WNW 10.4 mph 16.1 mph N/A   Clear
8:31 AM 1.4 °F -16.1 °F -7.6 °F 66% 30.04 in 1.5 mi WNW 12.7 mph 18.4 mph N/A   Haze
8:45 AM 1.4 °F -16.1 °F -9.4 °F 61% 30.04 in 10.0 mi West 12.7 mph - N/A   Clear
8:54 AM 1.0 °F -17.3 °F -9.0 °F 63% 30.14 in 10.0 mi West 13.8 mph - N/A   Partly Cloudy
9:54 AM 1.9 °F -17.5 °F -9.9 °F 58% 30.12 in 10.0 mi WNW 16.1 mph 21.9 mph N/A   Partly Cloudy
10:54 AM 3.9 °F -13.7 °F -9.0 °F 55% 30.11 in 10.0 mi WNW 13.8 mph 21.9 mph N/A   Clear
11:54 AM 5.0 °F -10.8 °F -9.9 °F 50% 30.10 in 10.0 mi WNW 11.5 mph 23.0 mph N/A   Partly Cloudy
12:54 PM 7.0 °F -9.8 °F -8.0 °F 51% 30.07 in 10.0 mi West 13.8 mph 20.7 mph N/A   Mostly Cloudy
1:54 PM 8.1 °F -7.7 °F -9.0 °F 46% 30.06 in 10.0 mi WNW 12.7 mph 24.2 mph N/A   Mostly Cloudy
2:54 PM 7.0 °F -9.8 °F -8.0 °F 51% 30.05 in 10.0 mi NW 13.8 mph 24.2 mph N/A   Overcast
3:54 PM 6.1 °F -11.6 °F -9.0 °F 50% 30.06 in 10.0 mi WNW 15.0 mph 24.2 mph N/A   Partly Cloudy
4:54 PM 5.0 °F -13.0 °F -9.9 °F 50% 30.08 in 10.0 mi NW 15.0 mph 25.3 mph N/A   Scattered Clouds
5:44 PM 1.4 °F -17.6 °F -7.6 °F 66% 30.01 in 10.0 mi NW 15.0 mph 27.6 mph N/A   Mostly Cloudy
5:54 PM 1.9 °F -15.5 °F -9.9 °F 58% 30.12 in 10.0 mi NW 12.7 mph 21.9 mph N/A   Mostly Cloudy
6:54 PM 1.0 °F -11.7 °F -11.9 °F 55% 30.11 in 10.0 mi WNW 6.9 mph - N/A   Clear
7:54 PM -0.0 °F -13.0 °F -11.0 °F 60% 30.12 in 10.0 mi West 6.9 mph - N/A   Clear
8:54 PM -0.9 °F -14.1 °F -9.9 °F 66% 30.12 in 10.0 mi West 6.9 mph - N/A   Clear
9:54 PM -2.0 °F -16.6 °F -9.9 °F 69% 30.13 in 10.0 mi WNW 8.1 mph - N/A   Clear
10:54 PM -2.0 °F -13.9 °F -9.9 °F 69% 30.12 in 10.0 mi WNW 5.8 mph - N/A   Clear
11:54 PM -2.9 °F -18.8 °F -11.0 °F 68% 30.12 in 10.0 mi WNW 9.2 mph - N/A   Clear